W8CEN Weather Reports


Display with metric or nautical units.
time (UTC)temp
F
wind
direction
speed
MPH
gust
MPH
rain 1hr
in
rain 24hr
in
rain mn
in
humidity
%
barometer
mb
20260504110230 49 240 1.0 2.0 0.00 0.00 0.00 73 985.5
20260504100154 50 206 2.0 2.0 0.00 0.00 0.00 71 985.1
20260504090116 50 283 1.0 1.0 0.00 0.00 0.00 70 985.6
20260504081547 50 288 1.0 2.0 0.00 0.00 0.00 69 986.1
20260504081042 50 236 3.0 3.0 0.00 0.00 0.00 69 986.1
20260504080539 50 300 1.0 2.0 0.00 0.00 0.00 69 986.3
20260504050352 51 254 3.0 3.0 0.00 0.00 0.00 65 988.4
20260504045849 51 275 1.0 1.0 0.00 0.00 0.00 66 988.5
20260504045350 51 308 1.0 1.0 0.00 0.00 0.00 66 988.6
20260504044847 51 314 0.0 0.0 0.00 0.00 0.00 65 988.6
20260504044344 51 21 1.0 1.0 0.00 0.00 0.00 65 988.6
20260504043842 51 261 1.0 1.0 0.00 0.00 0.00 66 988.5
20260504043338 52 349 0.0 1.0 0.00 0.00 0.00 66 988.5
20260504042836 52 334 1.0 1.0 0.00 0.00 0.00 65 988.9
20260504042332 52 235 2.0 3.0 0.00 0.00 0.00 65 988.6
20260504041828 52 331 2.0 3.0 0.00 0.00 0.00 66 989.0
20260504041324 52 288 2.0 2.0 0.00 0.00 0.00 65 988.8
20260504040821 51 356 1.0 1.0 0.00 0.00 0.00 66 988.9
20260504040319 51 289 2.0 2.0 0.00 0.00 0.00 66 988.9
20260504035814 51 294 1.0 1.0 0.00 0.00 0.00 66 988.9
20260504035312 51 45 1.0 1.0 0.00 0.00 0.00 67 989.1
20260504034809 51 203 1.0 2.0 0.00 0.00 0.00 67 988.9
20260504034306 51 11 0.0 1.0 0.00 0.00 0.00 68 989.1
20260504033804 51 270 2.0 3.0 0.00 0.00 0.00 68 989.1
20260504033301 51 321 3.0 3.0 0.00 0.00 0.00 68 989.1
20260504032758 51 243 1.0 3.0 0.00 0.00 0.00 68 989.2
20260504032255 51 266 1.0 1.0 0.00 0.00 0.00 69 989.3
20260504031751 51 251 1.0 2.0 0.00 0.00 0.00 70 989.2
20260504031249 50 273 0.0 2.0 0.00 0.00 0.00 71 989.3
20260504030744 50 184 0.0 0.0 0.00 0.00 0.00 71 989.5
20260504030242 50 239 1.0 1.0 0.00 0.00 0.00 71 989.8
20260504025738 50 161 0.0 1.0 0.00 0.00 0.00 71 989.6
20260504025235 50 71 0.0 0.0 0.00 0.00 0.00 71 989.7
20260504024732 50 165 0.0 0.0 0.00 0.00 0.00 70 989.6
20260504024229 51 15 0.0 0.0 0.00 0.00 0.00 70 989.8
20260504023726 51 266 1.0 1.0 0.00 0.00 0.00 69 989.8
20260504023221 51 250 1.0 1.0 0.00 0.00 0.00 69 989.7
20260504022718 51 62 0.0 0.0 0.00 0.00 0.00 68 989.9
20260504022214 51 249 1.0 1.0 0.00 0.00 0.00 68 990.0
20260504021712 51 267 1.0 1.0 0.00 0.00 0.00 68 989.8
20260504021209 51 271 1.0 2.0 0.00 0.00 0.00 67 989.9
20260504020706 52 336 1.0 2.0 0.00 0.00 0.00 67 989.8
20260504020201 52 252 1.0 2.0 0.00 0.00 0.00 66 989.9
20260504015658 52 22 0.0 0.0 0.00 0.00 0.00 66 989.8
20260504015154 52 155 1.0 1.0 0.00 0.00 0.00 66 990.1
20260504014650 52 9 0.0 1.0 0.00 0.00 0.00 66 989.9
20260504014148 52 297 2.0 2.0 0.00 0.00 0.00 65 989.9
20260504013645 52 26 0.0 0.0 0.00 0.00 0.00 66 990.0
20260504013142 52 247 1.0 1.0 0.00 0.00 0.00 66 989.9
20260504012639 52 300 1.0 2.0 0.00 0.00 0.00 65 990.0
20260504012137 53 259 0.0 1.0 0.00 0.00 0.00 63 990.1
20260504011634 53 25 0.0 1.0 0.00 0.00 0.00 64 989.9
20260504011130 53 238 3.0 3.0 0.00 0.00 0.00 62 990.0
20260504010626 53 281 2.0 2.0 0.00 0.00 0.00 62 989.8
20260504010122 53 248 3.0 4.0 0.00 0.00 0.00 62 990.0
20260504005619 53 229 3.0 3.0 0.00 0.00 0.00 61 990.0
20260504005116 53 247 1.0 2.0 0.00 0.00 0.00 62 990.2
20260504004614 53 235 2.0 2.0 0.00 0.00 0.00 62 990.1
20260504004111 53 242 3.0 3.0 0.00 0.00 0.00 62 990.1
20260504003607 53 240 3.0 3.0 0.00 0.00 0.00 62 990.2
20260504003104 53 261 2.0 2.0 0.00 0.00 0.00 61 990.1
20260504002601 53 249 2.0 3.0 0.00 0.00 0.00 60 990.2
20260504002058 54 265 4.0 6.0 0.00 0.00 0.00 59 990.6
20260504001556 54 232 3.0 6.0 0.00 0.00 0.00 61 990.6
20260504001051 54 245 4.0 6.0 0.00 0.00 0.00 61 990.4
20260504000549 54 260 4.0 6.0 0.00 0.00 0.00 61 990.5
20260504000046 54 262 7.0 9.0 0.00 0.00 0.00 60 990.3
20260503235545 54 288 4.0 4.0 0.00 0.00 0.00 61 990.1
20260503235041 55 252 4.0 4.0 0.00 0.00 0.00 61 990.3
20260503234538 55 249 5.0 6.0 0.00 0.00 0.00 60 990.4
20260503234037 55 266 6.0 8.0 0.00 0.00 0.00 59 990.2
20260503233533 57 233 5.0 7.0 0.00 0.00 0.00 58 990.1
20260503233029 57 264 5.0 7.0 0.00 0.00 0.00 57 990.2
20260503232526 57 240 9.0 10.0 0.00 0.00 0.00 56 990.1
20260503232024 58 273 6.0 7.0 0.00 0.00 0.00 54 989.9
20260503231521 58 239 6.0 8.0 0.00 0.00 0.00 52 989.9
20260503231018 59 215 6.0 9.0 0.00 0.00 0.00 51 989.9
20260503230514 59 262 7.0 8.0 0.00 0.00 0.00 49 989.7
20260503230012 61 238 7.0 10.0 0.00 0.00 0.00 42 989.8
20260503225509 61 291 3.0 4.0 0.00 0.00 0.00 38 989.7
20260503225004 62 244 4.0 6.0 0.00 0.00 0.00 36 989.7
20260503224501 62 256 4.0 4.0 0.00 0.00 0.00 35 989.9
20260503223959 62 334 4.0 6.0 0.00 0.00 0.00 36 989.8
20260503223457 62 228 5.0 7.0 0.00 0.00 0.00 37 989.8
20260503222952 62 226 4.0 6.0 0.00 0.00 0.00 37 989.9
20260503222451 62 225 4.0 4.0 0.00 0.00 0.00 35 989.7
20260503221949 62 247 5.0 6.0 0.00 0.00 0.00 36 989.8
20260503221447 62 251 3.0 3.0 0.00 0.00 0.00 37 989.9
20260503220943 62 247 5.0 6.0 0.00 0.00 0.00 36 989.8
20260503220439 62 296 4.0 7.0 0.00 0.00 0.00 36 989.9
20260503215937 63 246 6.0 9.0 0.00 0.00 0.00 35 990.0
20260503215433 63 239 6.0 7.0 0.00 0.00 0.00 35 989.8
20260503214931 63 255 6.0 7.0 0.00 0.00 0.00 34 989.9
20260503214429 63 225 5.0 7.0 0.00 0.00 0.00 34 990.1
20260503213926 63 304 8.0 10.0 0.00 0.00 0.00 35 990.0
20260503213424 64 256 6.0 7.0 0.00 0.00 0.00 33 990.1
20260503212920 64 246 8.0 13.0 0.00 0.00 0.00 32 990.1
20260503212418 64 269 4.0 6.0 0.00 0.00 0.00 35 990.0
20260503211915 63 321 3.0 6.0 0.00 0.00 0.00 35 990.1
20260503211412 63 249 5.0 7.0 0.00 0.00 0.00 34 990.1
20260503210907 64 233 6.0 8.0 0.00 0.00 0.00 34 990.0
20260503210404 64 303 4.0 7.0 0.00 0.00 0.00 33 990.0
20260503205859 64 208 9.0 10.0 0.00 0.00 0.00 32 990.0
20260503205356 64 248 4.0 7.0 0.00 0.00 0.00 32 990.3
20260503204852 64 237 6.0 9.0 0.00 0.00 0.00 32 990.2
20260503204349 64 240 6.0 8.0 0.00 0.00 0.00 32 990.2
20260503203847 63 293 4.0 7.0 0.00 0.00 0.00 33 990.3
20260503203344 63 228 8.0 10.0 0.00 0.00 0.00 32 990.4
20260503202841 64 245 10.0 13.0 0.00 0.00 0.00 32 990.3
20260503202339 64 245 6.0 8.0 0.00 0.00 0.00 33 990.3
20260503201837 64 251 4.0 6.0 0.00 0.00 0.00 33 990.6
20260503201334 64 259 5.0 7.0 0.00 0.00 0.00 32 990.5
20260503200832 64 236 8.0 9.0 0.00 0.00 0.00 32 990.6
20260503200327 64 242 8.0 8.0 0.00 0.00 0.00 32 990.6
20260503195825 64 236 6.0 9.0 0.00 0.00 0.00 33 990.5
20260503195321 64 259 7.0 10.0 0.00 0.00 0.00 33 990.6
20260503194819 64 259 6.0 8.0 0.00 0.00 0.00 32 990.7
20260503194314 65 232 6.0 7.0 0.00 0.00 0.00 33 990.9
20260503193810 64 252 8.0 10.0 0.00 0.00 0.00 33 990.7
20260503193307 64 249 5.0 7.0 0.00 0.00 0.00 33 990.8
20260503192803 64 277 8.0 11.0 0.00 0.00 0.00 33 991.2
20260503192258 64 243 7.0 10.0 0.00 0.00 0.00 34 990.7
20260503191755 64 233 4.0 7.0 0.00 0.00 0.00 33 991.3
20260503191252 64 232 8.0 10.0 0.00 0.00 0.00 32 991.2
20260503190748 64 319 4.0 6.0 0.00 0.00 0.00 35 991.4
20260503190245 63 281 4.0 4.0 0.00 0.00 0.00 33 991.2
20260503185743 63 249 8.0 10.0 0.00 0.00 0.00 33 991.5
20260503185238 64 253 6.0 8.0 0.00 0.00 0.00 32 991.4
20260503184733 64 227 6.0 10.0 0.00 0.00 0.00 34 991.6
20260503184230 64 243 6.0 7.0 0.00 0.00 0.00 33 991.6
20260503183726 63 252 7.0 9.0 0.00 0.00 0.00 34 991.6
20260503183223 63 235 8.0 9.0 0.00 0.00 0.00 35 991.9
20260503182721 63 248 6.0 9.0 0.00 0.00 0.00 36 991.7
20260503182220 64 254 5.0 7.0 0.00 0.00 0.00 34 991.9
20260503181716 64 235 6.0 8.0 0.00 0.00 0.00 33 992.0
20260503181213 64 250 4.0 6.0 0.00 0.00 0.00 35 992.0
20260503180709 64 257 8.0 9.0 0.00 0.00 0.00 33 992.1
20260503180208 64 258 4.0 6.0 0.00 0.00 0.00 32 992.2
20260503175704 63 271 4.0 6.0 0.00 0.00 0.00 36 992.3
20260503175202 63 180 6.0 8.0 0.00 0.00 0.00 33 992.3
20260503174657 63 267 8.0 10.0 0.00 0.00 0.00 33 992.3
20260503174155 63 250 6.0 9.0 0.00 0.00 0.00 35 992.4
20260503173650 63 232 6.0 7.0 0.00 0.00 0.00 35 992.3
20260503173147 62 249 5.0 8.0 0.00 0.00 0.00 37 992.4
20260503172644 63 238 6.0 10.0 0.00 0.00 0.00 35 992.5
20260503172141 62 269 5.0 6.0 0.00 0.00 0.00 37 992.7
20260503171637 63 248 9.0 13.0 0.00 0.00 0.00 35 992.6
20260503171135 63 259 5.0 7.0 0.00 0.00 0.00 38 992.9
20260503170632 63 242 5.0 7.0 0.00 0.00 0.00 36 992.9
20260503170128 63 246 4.0 4.0 0.00 0.00 0.00 41 993.1
20260503150520 56 253 4.0 4.0 0.00 0.00 0.00 47 994.4
20260503131413 50 243 4.0 6.0 0.00 0.00 0.00 52 994.2
20260503130910 50 235 3.0 7.0 0.00 0.00 0.00 53 994.5
20260503130408 49 237 4.0 4.0 0.00 0.00 0.00 53 994.5